Stations météo

réclame
Mon MeteoGroup
Aboyne, Grande-Bretagne (3080): Température de l'air & dewpoint: 19.09.2018 10:00:00 - 25.09.2018 10:00:00 (BST)Aboyne, Grande-Bretagne (3080): Température de l'air -20cm & Température de l'air -100cm: 19.09.2018 10:00:00 - 25.09.2018 10:00:00 (BST)Aboyne, Grande-Bretagne (3080): Vitesse du vent & gusts: 19.09.2018 10:00:00 - 25.09.2018 10:00:00 (BST)Aboyne, Grande-Bretagne (3080): Direction du vent: 19.09.2018 10:00:00 - 25.09.2018 10:00:00 (BST)Aboyne, Grande-Bretagne (3080): reduced air pressure: 19.09.2018 10:00:00 - 25.09.2018 10:00:00 (BST)Aboyne, Grande-Bretagne (3080): visibility: 19.09.2018 10:00:00 - 25.09.2018 10:00:00 (BST)Aboyne, Grande-Bretagne (3080): Quantités de précipitations: 19.09.2018 10:00:00 - 25.09.2018 10:00:00 (BST)
Date & Time tt [°C] td [°C] tt -20cm [°C] tt -100cm [°C] ff [km/h] ff [knt] fx [km/h] fx [knt] dd ppp [hPa] vv [km] rr [mm]
25.09.2018 10:00:00 11,2 3,9 11,7 12,2 16 9 - - SW 1029,0 45 0,0
25.09.2018 09:00:00 10,2 4,1 - - 8 4 - - SSW 1029,7 40 0,0
25.09.2018 08:00:00 9,4 4,4 - - 21 11 - - SW 1030,0 40 0,0
25.09.2018 07:00:00 8,9 4,0 - - 16 9 - - SW 1031,1 50 0,0
25.09.2018 06:00:00 9,4 4,0 - - 16 9 - - SW 1031,1 45 0,0
25.09.2018 05:00:00 9,0 4,5 - - 15 8 - - SSW 1031,5 45 0,0
25.09.2018 04:00:00 5,7 2,8 - - 5 3 - - E 1032,1 45 0,0
25.09.2018 03:00:00 6,6 3,9 - - 8 4 - - SE 1033,0 50 0,0
25.09.2018 02:00:00 7,7 3,2 - - 4 2 - - NNW 1033,0 50 0,0
25.09.2018 01:00:00 9,8 4,2 - - 15 8 - - WSW 1033,0 50 0,0
25.09.2018 00:00:00 9,6 4,5 - - 4 2 - - WNW 1033,5 50 0,0
24.09.2018 23:00:00 9,5 4,6 - - 11 6 - - W 1033,7 50 0,0
24.09.2018 22:00:00 9,7 4,4 - - 8 4 - - W 1033,7 50 0,0
24.09.2018 21:00:00 8,4 5,1 - - 9 5 - - W 1033,8 50 0,0
24.09.2018 20:00:00 8,2 5,0 - - 2 1 - - SW 1033,7 45 0,0
24.09.2018 19:00:00 9,7 5,2 - - 5 3 - - WNW 1033,7 50 0,0
24.09.2018 18:00:00 10,9 4,9 - - 11 6 - - NW 1033,3 50 0,0
24.09.2018 17:00:00 12,3 3,4 - - 11 6 - - WNW 1033,1 50 0,0
24.09.2018 16:00:00 12,9 4,5 - - 21 11 - - W 1033,4 21 0,0
24.09.2018 15:00:00 13,1 2,5 - - 24 13 - - WNW 1033,4 50 0,0
24.09.2018 14:00:00 13,0 2,4 - - 21 11 - - WSW 1033,5 35 0,0
24.09.2018 13:00:00 13,0 2,2 - - 22 12 - - W 1033,4 29 0,0
24.09.2018 12:00:00 11,3 3,1 - - 22 12 - - W 1033,5 50 0,0
24.09.2018 11:00:00 11,2 4,3 - - 21 11 - - W 1033,3 50 0,0
24.09.2018 10:00:00 10,5 4,5 11,7 12,4 9 5 - - W 1032,9 40 0,0
24.09.2018 09:00:00 8,6 4,7 - - 4 2 - - N 1032,4 40 0,0
24.09.2018 08:00:00 2,7 1,2 - - 4 2 - - E 1032,5 40 0,0
24.09.2018 07:00:00 4,9 2,1 - - 11 6 - - WNW 1031,8 45 0,0
24.09.2018 06:00:00 5,0 1,9 - - 15 8 - - WNW 1031,4 50 0,0
24.09.2018 05:00:00 5,4 1,8 - - 18 10 - - WNW 1031,1 50 0,0
24.09.2018 04:00:00 6,3 2,1 - - 18 10 - - WNW 1030,8 45 0,0
24.09.2018 03:00:00 5,9 1,7 - - 21 11 - - W 1030,3 40 0,0
24.09.2018 02:00:00 5,2 1,3 - - 15 8 - - WNW 1029,9 35 0,0
24.09.2018 01:00:00 4,4 0,9 - - 13 7 - - WNW 1029,5 45 0,0
24.09.2018 00:00:00 5,1 1,5 - - 21 11 - - WNW 1028,9 45 0,0
23.09.2018 23:00:00 5,2 2,3 - - 18 10 - - W 1027,9 50 0,0
23.09.2018 22:00:00 5,5 2,8 - - 22 12 - - W 1027,4 40 0,0
23.09.2018 21:00:00 5,8 3,2 - - 18 10 - - WNW 1027,1 50 0,2
23.09.2018 20:00:00 6,2 4,1 - - 21 11 - - WNW 1026,1 50 0,4
23.09.2018 19:00:00 6,3 4,4 - - 15 8 - - W 1024,8 50 0,0
23.09.2018 18:00:00 7,4 5,5 - - 11 6 - - W 1023,5 50 1,8
23.09.2018 17:00:00 10,7 3,3 - - 13 7 - - WNW 1022,4 50 0,0
23.09.2018 16:00:00 8,9 3,3 - - 18 10 - - WNW 1022,2 50 0,0
23.09.2018 15:00:00 10,0 4,0 - - 13 7 - - WNW 1021,1 45 0,0
23.09.2018 14:00:00 11,9 3,0 - - 24 13 - - WNW 1020,0 50 0,0
23.09.2018 13:00:00 10,1 3,1 - - 13 7 - - WNW 1019,6 45 0,0
23.09.2018 12:00:00 10,6 2,9 - - 16 9 - - WNW 1018,9 45 0,0
23.09.2018 11:00:00 10,2 3,8 - - 15 8 - - W 1018,4 50 0,0
23.09.2018 10:00:00 9,1 4,4 12,0 12,7 9 5 - - W 1017,8 45 0,0
23.09.2018 09:00:00 4,8 2,9 - - 5 3 - - NW 1017,7 50 0,0
23.09.2018 08:00:00 1,6 1,1 - - 4 2 - - WNW 1017,2 50 0,0
23.09.2018 07:00:00 0,9 0,8 - - 11 6 - - NW 1017,0 50 0,0
23.09.2018 06:00:00 0,1 0,0 - - 5 3 - - WSW 1016,7 35 0,0
23.09.2018 05:00:00 0,1 -0,1 - - 8 4 - - NW 1016,1 50 0,0
23.09.2018 04:00:00 -1,1 -2,0 - - 2 1 - - WNW 1016,2 45 0,0
23.09.2018 03:00:00 0,8 0,1 - - 5 3 - - NNW 1016,1 50 0,0
23.09.2018 02:00:00 2,5 1,7 - - 13 7 - - WNW 1015,7 50 0,0
23.09.2018 01:00:00 3,1 2,3 - - 15 8 - - W 1015,7 50 0,0
23.09.2018 00:00:00 2,7 2,0 - - 5 3 - - NW 1015,7 50 0,0
22.09.2018 23:00:00 2,6 1,1 - - 2 1 - - SE 1015,3 50 0,0
22.09.2018 22:00:00 4,4 2,0 - - 5 3 - - W 1014,9 45 0,0
22.09.2018 21:00:00 6,0 3,3 - - 9 5 - - W 1014,4 50 0,0
22.09.2018 20:00:00 6,8 3,4 - - 8 4 - - WNW 1013,9 50 0,0
22.09.2018 19:00:00 9,5 3,5 - - 9 5 - - WNW 1013,0 50 0,0
22.09.2018 18:00:00 9,8 3,2 - - 18 10 - - WNW 1012,7 45 0,0
22.09.2018 17:00:00 12,2 4,3 - - 26 14 48 26 W 1012,1 15 0,0
22.09.2018 16:00:00 13,1 4,1 - - 24 13 - - W 1011,5 35 0,0
22.09.2018 15:00:00 14,3 2,5 - - 22 12 - - W 1011,1 35 0,0
22.09.2018 14:00:00 11,8 2,8 - - 28 15 - - W 1011,2 40 0,0
22.09.2018 13:00:00 13,5 4,1 - - 22 12 48 26 W 1010,4 35 0,0
22.09.2018 12:00:00 12,1 4,0 - - 26 14 57 31 WNW 1009,8 40 0,0
22.09.2018 11:00:00 12,1 3,8 - - 37 20 57 31 WNW 1009,0 40 0,0
22.09.2018 10:00:00 11,1 3,3 12,2 12,7 22 12 46 25 WNW 1008,9 40 0,0
22.09.2018 09:00:00 10,1 2,4 - - 16 9 - - W 1008,3 40 0,0
22.09.2018 08:00:00 7,0 2,2 - - 13 7 - - WSW 1007,4 35 0,0
22.09.2018 07:00:00 3,2 1,2 - - 8 4 - - W 1007,1 50 0,0
22.09.2018 06:00:00 3,9 1,5 - - 4 2 - - W 1007,0 35 0,0
22.09.2018 05:00:00 4,1 2,1 - - 8 4 - - WNW 1007,1 35 0,0
22.09.2018 04:00:00 2,9 1,5 - - 2 1 - - NE 1007,1 45 0,0
22.09.2018 03:00:00 5,4 1,9 - - 8 4 - - W 1006,6 50 0,0
22.09.2018 02:00:00 7,3 2,9 - - 16 9 - - W 1006,1 45 0,0
22.09.2018 01:00:00 7,2 2,7 - - 18 10 - - W 1005,7 45 0,0
22.09.2018 00:00:00 5,3 2,1 - - 9 5 - - W 1005,6 50 0,0
21.09.2018 23:00:00 7,3 3,1 - - 8 4 - - NW 1005,2 50 0,0
21.09.2018 22:00:00 7,7 3,0 - - 18 10 - - W 1004,4 50 0,0
21.09.2018 21:00:00 6,8 2,8 - - 15 8 - - W 1004,3 50 0,0
21.09.2018 20:00:00 7,6 3,0 - - 15 8 - - WNW 1003,6 50 0,0
21.09.2018 19:00:00 9,2 2,4 - - 16 9 48 26 W 1002,5 50 0,0
21.09.2018 18:00:00 10,8 2,5 - - 26 14 - - W 1001,9 45 0,0
21.09.2018 17:00:00 11,5 3,4 - - 24 13 46 25 WNW 1000,7 45 0,0
21.09.2018 16:00:00 10,9 3,5 - - 28 15 48 26 WNW 999,8 30 0,0
21.09.2018 15:00:00 10,0 3,6 - - 26 14 55 30 NW 998,6 30 0,0
21.09.2018 14:00:00 10,4 4,0 - - 28 15 46 25 WNW 996,9 35 0,0
21.09.2018 13:00:00 10,1 5,1 - - 18 10 - - WNW 995,5 45 0,0
21.09.2018 12:00:00 8,6 4,9 - - 24 13 - - WNW 994,4 30 0,2
21.09.2018 11:00:00 7,4 4,6 - - 26 14 - - WNW 993,0 35 0,0
21.09.2018 10:00:00 8,5 4,2 12,7 12,9 29 16 50 27 WNW 991,7 35 0,0
21.09.2018 09:00:00 8,3 3,3 - - 22 12 - - W 990,3 45 0,0
21.09.2018 08:00:00 7,7 3,6 - - 22 12 - - WNW 990,0 50 0,0
21.09.2018 07:00:00 7,5 4,2 - - 16 9 - - W 990,0 35 0,0
21.09.2018 06:00:00 7,1 4,5 - - 15 8 - - WNW 990,0 35 0,0
21.09.2018 05:00:00 6,3 5,3 - - 8 4 - - WSW 990,6 28 0,6
21.09.2018 04:00:00 7,2 5,2 - - 15 8 - - WNW 991,3 23 0,2
21.09.2018 03:00:00 6,3 4,6 - - 8 4 - - W 991,8 45 0,2
21.09.2018 02:00:00 6,2 5,3 - - 8 4 - - W 992,7 30 0,0
21.09.2018 01:00:00 6,5 5,3 - - 4 2 - - W 994,2 40 0,0
21.09.2018 00:00:00 7,0 5,0 - - 4 2 - - N 995,3 35 0,0
20.09.2018 23:00:00 7,5 5,2 - - 9 5 - - WNW 995,8 40 0,0
20.09.2018 22:00:00 6,6 4,7 - - 2 1 - - ENE 997,4 40 0,0
20.09.2018 21:00:00 7,9 4,8 - - 5 3 - - NW 998,3 50 0,0
20.09.2018 20:00:00 9,5 4,2 - - 5 3 - - N 998,4 50 0,0
20.09.2018 19:00:00 10,4 4,2 - - 11 6 - - S 998,9 45 0,0
20.09.2018 18:00:00 11,4 3,9 - - 16 9 - - SW 999,5 40 0,0
20.09.2018 17:00:00 12,2 3,5 - - 11 6 - - SW 1000,7 40 0,0
20.09.2018 16:00:00 12,8 4,2 - - 18 10 - - WSW 1000,4 45 0,0
20.09.2018 15:00:00 13,6 4,4 - - 15 8 - - W 1000,4 35 0,0
20.09.2018 14:00:00 14,3 3,0 - - 21 11 63 34 W 1000,3 40 0,0
20.09.2018 13:00:00 15,0 4,0 - - 29 16 50 27 W 1000,2 30 0,0
20.09.2018 12:00:00 13,8 3,2 - - 16 9 61 33 WSW 1000,0 40 0,0
20.09.2018 11:00:00 12,4 4,6 - - 13 7 57 31 SSE 1000,1 45 0,0
20.09.2018 10:00:00 11,2 4,5 12,9 13,0 18 10 57 31 SW 999,9 45 0,0
20.09.2018 09:00:00 10,0 3,9 - - 35 19 59 32 SW 999,7 45 0,0
20.09.2018 08:00:00 8,9 3,6 - - 37 20 67 36 SW 999,5 35 0,0
20.09.2018 07:00:00 8,6 3,7 - - 37 20 55 30 SW 999,3 50 0,0
20.09.2018 06:00:00 8,8 3,3 - - 34 18 55 30 WSW 999,0 50 0,0
20.09.2018 05:00:00 8,5 3,3 - - 41 22 67 36 SW 998,1 50 0,0
20.09.2018 04:00:00 8,1 3,7 - - 28 15 63 34 WSW 998,1 50 0,0
20.09.2018 03:00:00 8,2 3,3 - - 28 15 52 28 WSW 998,1 45 0,0
20.09.2018 02:00:00 7,6 3,2 - - 28 15 52 28 WSW 998,1 50 0,2
20.09.2018 01:00:00 8,6 4,7 - - 35 19 55 30 SW 997,8 22 0,0
20.09.2018 00:00:00 8,7 3,7 - - 37 20 68 37 SW 997,2 40 0,0
19.09.2018 23:00:00 8,9 3,8 - - 41 22 74 40 SW 996,3 50 0,0
19.09.2018 22:00:00 9,0 3,8 - - 39 21 68 37 WSW 996,3 50 0,0
19.09.2018 21:00:00 8,9 4,3 - - 44 24 68 37 WSW 995,2 35 0,0
19.09.2018 20:00:00 9,3 4,9 - - 41 22 65 35 SW 994,0 50 0,0
19.09.2018 19:00:00 9,9 5,3 - - 35 19 70 38 WSW 993,0 45 0,0
19.09.2018 18:00:00 10,4 5,6 - - 41 22 76 41 WSW 991,0 - 0,0
19.09.2018 17:00:00 12,5 4,6 - - 46 25 81 44 WSW 988,0 - 0,0
19.09.2018 16:00:00 14,1 6,3 - - 61 33 94 51 WSW 984,6 - 0,0
19.09.2018 15:00:00 12,2 8,7 - - 37 20 87 47 SW 982,0 - 0,0
19.09.2018 14:00:00 13,5 6,9 - - 50 27 104 56 SW 982,7 19 0,4
19.09.2018 13:00:00 13,9 10,1 - - 24 13 70 38 SSW 982,0 14 3,8
19.09.2018 12:00:00 12,9 11,0 - - 37 20 68 37 SE 984,1 11 2,4
19.09.2018 11:00:00 11,5 10,0 - - 26 14 46 25 SE 988,0 24 3,6
19.09.2018 10:00:00 9,9 7,7 13,4 13,0 13 7 - - SE 992,2 8 1,0

tt = Température de l'air
td = dewpoint
tt -20cm = Température de l'air -20cm
tt -100cm = Température de l'air -100cm
ff = Vitesse du vent
fx = gusts
dd = Direction du vent
ppp = reduced air pressure
vv = visibility
rr = Quantités de précipitations

stations d'obs. à proximité